Flag for U.S.A. Weather past 2 weeks in Amarillo, Texas, U.S.A.

Now
49 °F

Clear.


Feels Like: 43 °F
Forecast: 45 / 68 °F
Wind: 16 mph from Southwest

Location: Amarillo International Airport

Current Time: Jan 28, 2015 at 7:06:48 AM

Latest Report: Jan 28, 2015 at 5:53 AM


Visibility: 10 mi

Pressure: 29.94 "Hg

Humidity: 64%

Dew point: 37 °F

Location of AmarilloLocation

Historic Weather in Amarillo — Graph

°F

Amarillo temperature yesterday

Maximum temperature yesterday: 72 °F (at 1:53 PM)
Minimum temperature yesterday: 41 °F (at 4:53 AM)
Average temperature yesterday: 54 °F

Past Weeks' High & Low Weather Summary

 TemperatureHumidityPressure
High72 °F (Jan 27, 1:53 PM)100% (Jan 21, 8:53 PM)30.48 "Hg (Jan 21, 8:53 PM)
Low13 °F (Jan 23, 4:53 AM)11% (Jan 19, 3:53 PM)29.80 "Hg (Jan 17, 1:53 AM)
Average40 °F61%30.19 "Hg
* Reported Jan 13 5:53 AM — Jan 28 5:53 AM, Amarillo, Weather by CustomWeather, © 2014

Note: Actual official high and low records may vary slightly from our data, if they occured in-between our weather recording intervals... More about our weather records

Advertising

Amarillo weather history for previous 24 hours

 ConditionsComfort  
Time TempWeatherWind HumidityBarometerVisibility
5:53 AM
Jan 28
49 °FClear.16 mph64%29.94 "Hg10 mi
4:53 AM50 °FClear.13 mph61%29.93 "Hg10 mi
3:53 AM52 °FClear.13 mph57%29.92 "Hg10 mi
2:53 AM46 °FClear.12 mph68%29.95 "Hg10 mi
1:53 AM44 °FClear.10 mph68%29.97 "Hg10 mi
12:53 AM48 °FClear.10 mph59%29.98 "Hg10 mi
11:53 PM
Jan 27
46 °FClear.12 mph63%30.01 "Hg10 mi
10:53 PM44 °FClear.10 mph68%30.02 "Hg10 mi
9:53 PM46 °FClear.12 mph63%30.03 "Hg10 mi
8:53 PM47 °FClear.9 mph61%30.07 "Hg10 mi
7:53 PM51 °FClear.9 mph52%30.09 "Hg10 mi
6:53 PM56 °FClear.9 mph44%30.07 "Hg10 mi
5:53 PM63 °FSunny.8 mph35%30.05 "Hg10 mi
4:53 PM69 °FSunny.8 mph25%30.06 "Hg10 mi
3:53 PM72 °FSunny.14 mph21%30.06 "Hg10 mi
2:53 PM71 °FSunny.10 mph23%30.08 "Hg10 mi
1:53 PM72 °FSunny.15 mph20%30.10 "Hg10 mi
12:53 PM71 °FSunny.13 mph20%30.13 "Hg10 mi
11:53 AM69 °FSunny.8 mph26%30.16 "Hg10 mi
10:53 AM67 °FSunny.7 mph26%30.17 "Hg10 mi
9:53 AM61 °FSunny.6 mph36%30.17 "Hg10 mi
8:53 AM47 °FSunny.No wind61%30.20 "Hg10 mi
7:53 AM41 °FSunny.6 mph67%30.20 "Hg10 mi
Weather by CustomWeather, © 2014

See weather overviewHow to use our weather pages